| time (UTC) | temp F | wind direction | speed MPH | gust MPH | rain 1hr in | rain 24hr in | rain mn in | humidity % | barometer mb |
| 20260902154513 | 88 | 186 | 4.0 | 9.0 | 0.00 | 0.00 | 0.00 | 56 | 1013.3 |
| 20260902153009 | 87 | 212 | 6.0 | 10.0 | 0.00 | 0.00 | 0.00 | 57 | 1013.2 |
| 20260902151508 | 85 | 267 | 3.0 | 5.0 | 0.00 | 0.00 | 0.00 | 60 | 1013.3 |
| 20260902150003 | 83 | 198 | 4.0 | 13.0 | 0.00 | 0.00 | 0.00 | 63 | 1013.3 |
| 20260902144502 | 83 | 217 | 7.0 | 12.0 | 0.00 | 0.00 | 0.00 | 64 | 1013.4 |
| 20260902143001 | 82 | 225 | 5.0 | 11.0 | 0.00 | 0.00 | 0.00 | 65 | 1013.4 |
| 20260902141501 | 81 | 202 | 5.0 | 9.0 | 0.00 | 0.00 | 0.00 | 67 | 1013.2 |
| 20260902140107 | 79 | 207 | 3.0 | 9.0 | 0.00 | 0.00 | 0.00 | 68 | 1013.3 |
| 20260902134619 | 78 | 208 | 4.0 | 9.0 | 0.00 | 0.00 | 0.00 | 69 | 1013.2 |
| 20260902133104 | 77 | 233 | 1.0 | 5.0 | 0.00 | 0.00 | 0.00 | 69 | 1013.1 |
| 20260902131557 | 76 | 210 | 1.0 | 6.0 | 0.00 | 0.00 | 0.00 | 71 | 1013.2 |
| 20260902130054 | 74 | 217 | 3.0 | 7.0 | 0.00 | 0.00 | 0.00 | 71 | 1012.9 |
| 20260902124601 | 74 | 207 | 1.0 | 6.0 | 0.00 | 0.00 | 0.00 | 69 | 1013.0 |
| 20260902123052 | 74 | 173 | 0.0 | 4.0 | 0.00 | 0.00 | 0.00 | 70 | 1012.8 |
| 20260902121551 | 73 | 172 | 0.0 | 4.0 | 0.00 | 0.00 | 0.00 | 70 | 1012.8 |
| 20260902120047 | 74 | 202 | 0.0 | 0.0 | 0.00 | 0.00 | 0.00 | 69 | 1012.6 |
| 20260902114545 | 74 | 202 | 0.0 | 2.0 | 0.00 | 0.00 | 0.00 | 67 | 1012.4 |
| 20260902113044 | 76 | 193 | 0.0 | 2.0 | 0.00 | 0.00 | 0.00 | 65 | 1012.2 |
| 20260902111540 | 76 | 193 | 1.0 | 6.0 | 0.00 | 0.00 | 0.00 | 64 | 1012.3 |
| 20260902110039 | 77 | 205 | 2.0 | 6.0 | 0.00 | 0.00 | 0.00 | 63 | 1012.2 |
| 20260902104544 | 77 | 186 | 3.0 | 7.0 | 0.00 | 0.00 | 0.00 | 62 | 1012.1 |
| 20260902103044 | 76 | 198 | 2.0 | 6.0 | 0.00 | 0.00 | 0.00 | 62 | 1012.1 |
| 20260902101544 | 77 | 184 | 2.0 | 5.0 | 0.00 | 0.00 | 0.00 | 60 | 1012.1 |
| 20260902100033 | 78 | 199 | 2.0 | 5.0 | 0.00 | 0.00 | 0.00 | 59 | 1012.1 |
| 20260902094531 | 78 | 178 | 3.0 | 7.0 | 0.00 | 0.00 | 0.00 | 59 | 1012.2 |
| 20260902093038 | 78 | 202 | 4.0 | 8.0 | 0.00 | 0.00 | 0.00 | 59 | 1012.2 |
| 20260902091536 | 77 | 194 | 3.0 | 6.0 | 0.00 | 0.00 | 0.00 | 59 | 1012.1 |
| 20260902090027 | 77 | 196 | 2.0 | 5.0 | 0.00 | 0.00 | 0.00 | 60 | 1012.0 |
| 20260902084545 | 76 | 184 | 1.0 | 4.0 | 0.00 | 0.00 | 0.00 | 61 | 1012.1 |
| 20260902083038 | 76 | 165 | 0.0 | 0.0 | 0.00 | 0.00 | 0.00 | 61 | 1012.2 |
| 20260902081524 | 77 | 165 | 0.0 | 3.0 | 0.00 | 0.00 | 0.00 | 61 | 1012.2 |
| 20260902080023 | 77 | 165 | 2.0 | 5.0 | 0.00 | 0.00 | 0.00 | 60 | 1012.1 |
| 20260902074522 | 78 | 166 | 3.0 | 5.0 | 0.00 | 0.00 | 0.00 | 60 | 1012.0 |
| 20260902073019 | 78 | 169 | 2.0 | 5.0 | 0.00 | 0.00 | 0.00 | 60 | 1012.1 |
| 20260902071523 | 78 | 157 | 1.0 | 3.0 | 0.00 | 0.00 | 0.00 | 60 | 1012.1 |
| 20260902070021 | 79 | 157 | 2.0 | 5.0 | 0.00 | 0.00 | 0.00 | 59 | 1012.1 |
| 20260902064514 | 80 | 156 | 1.0 | 3.0 | 0.00 | 0.00 | 0.00 | 58 | 1012.2 |
| 20260902063012 | 80 | 155 | 1.0 | 3.0 | 0.00 | 0.00 | 0.00 | 57 | 1012.1 |
| 20260902061518 | 81 | 168 | 2.0 | 5.0 | 0.00 | 0.00 | 0.00 | 56 | 1012.1 |
| 20260902060007 | 81 | 163 | 3.0 | 6.0 | 0.00 | 0.00 | 0.00 | 56 | 1012.1 |
| 20260902054505 | 82 | 148 | 3.0 | 5.0 | 0.00 | 0.00 | 0.00 | 55 | 1012.2 |
| 20260902053004 | 82 | 158 | 3.0 | 6.0 | 0.00 | 0.00 | 0.00 | 54 | 1012.2 |
| 20260902051600 | 83 | 176 | 2.0 | 6.0 | 0.00 | 0.00 | 0.00 | 53 | 1012.1 |
| 20260902050110 | 84 | 169 | 3.0 | 7.0 | 0.00 | 0.00 | 0.00 | 50 | 1012.1 |
| 20260902044608 | 85 | 147 | 4.0 | 9.0 | 0.00 | 0.00 | 0.00 | 49 | 1012.2 |
| 20260902043056 | 86 | 148 | 5.0 | 13.0 | 0.00 | 0.00 | 0.00 | 48 | 1012.2 |
| 20260902041554 | 87 | 105 | 6.0 | 13.0 | 0.00 | 0.00 | 0.00 | 47 | 1012.1 |
| 20260902040055 | 88 | 150 | 9.0 | 16.0 | 0.00 | 0.00 | 0.00 | 45 | 1012.1 |
| 20260902034600 | 88 | 167 | 7.0 | 19.0 | 0.00 | 0.00 | 0.00 | 43 | 1011.9 |
| 20260902033103 | 89 | 103 | 5.0 | 10.0 | 0.00 | 0.00 | 0.00 | 41 | 1011.8 |
| 20260902031556 | 89 | 153 | 3.0 | 9.0 | 0.00 | 0.00 | 0.00 | 40 | 1011.5 |
| 20260902030054 | 89 | 166 | 4.0 | 9.0 | 0.00 | 0.00 | 0.00 | 40 | 1011.4 |
| 20260902024556 | 89 | 162 | 4.0 | 8.0 | 0.00 | 0.00 | 0.00 | 40 | 1011.0 |
| 20260902023058 | 89 | 138 | 3.0 | 8.0 | 0.00 | 0.00 | 0.00 | 40 | 1010.8 |
| 20260902021557 | 90 | 140 | 3.0 | 8.0 | 0.00 | 0.00 | 0.00 | 39 | 1010.5 |
| 20260902014548 | 91 | 133 | 3.0 | 8.0 | 0.00 | 0.00 | 0.00 | 38 | 1010.1 |
| 20260902013050 | 91 | 161 | 3.0 | 8.0 | 0.00 | 0.00 | 0.00 | 38 | 1009.8 |
| 20260902011549 | 92 | 138 | 2.0 | 7.0 | 0.00 | 0.00 | 0.00 | 37 | 1009.8 |
| 20260902010048 | 93 | 128 | 3.0 | 5.0 | 0.00 | 0.00 | 0.00 | 36 | 1009.6 |
| 20260902004546 | 94 | 144 | 3.0 | 7.0 | 0.00 | 0.00 | 0.00 | 35 | 1009.6 |
| 20260902003047 | 95 | 144 | 2.0 | 7.0 | 0.00 | 0.00 | 0.00 | 35 | 1009.8 |
| 20260902001545 | 95 | 176 | 4.0 | 9.0 | 0.00 | 0.00 | 0.00 | 34 | 1009.7 |
| 20260902000044 | 96 | 134 | 2.0 | 8.0 | 0.00 | 0.00 | 0.00 | 34 | 1009.7 |
| 20260901234545 | 96 | 162 | 6.0 | 11.0 | 0.00 | 0.00 | 0.00 | 33 | 1009.6 |
| 20260901233043 | 96 | 78 | 4.0 | 10.0 | 0.00 | 0.00 | 0.00 | 34 | 1009.7 |
| 20260901231544 | 96 | 79 | 5.0 | 12.0 | 0.00 | 0.00 | 0.00 | 34 | 1009.5 |
| 20260901230043 | 96 | 98 | 6.0 | 12.0 | 0.00 | 0.00 | 0.00 | 34 | 1009.6 |
| 20260901224541 | 97 | 126 | 4.0 | 14.0 | 0.00 | 0.00 | 0.00 | 33 | 1009.5 |
| 20260901223047 | 97 | 83 | 6.0 | 11.0 | 0.00 | 0.00 | 0.00 | 34 | 1009.5 |
| 20260901221541 | 96 | 63 | 4.0 | 12.0 | 0.00 | 0.00 | 0.00 | 35 | 1009.6 |
| 20260901220039 | 98 | 95 | 4.0 | 24.0 | 0.00 | 0.00 | 0.00 | 33 | 1009.6 |
| 20260901214541 | 97 | 76 | 5.0 | 12.0 | 0.00 | 0.00 | 0.00 | 35 | 1009.7 |
| 20260901213100 | 96 | 115 | 3.0 | 11.0 | 0.00 | 0.00 | 0.00 | 34 | 1009.9 |
| 20260901211535 | 97 | 119 | 4.0 | 15.0 | 0.00 | 0.00 | 0.00 | 34 | 1010.1 |
| 20260901210032 | 98 | 53 | 5.0 | 12.0 | 0.00 | 0.00 | 0.00 | 34 | 1010.4 |
| 20260901204536 | 99 | 41 | 7.0 | 13.0 | 0.00 | 0.00 | 0.00 | 33 | 1010.7 |
| 20260901203028 | 98 | 88 | 3.0 | 10.0 | 0.00 | 0.00 | 0.00 | 34 | 1011.0 |
| 20260901201525 | 96 | 161 | 2.0 | 9.0 | 0.00 | 0.00 | 0.00 | 35 | 1011.3 |
| 20260901200022 | 98 | 57 | 3.0 | 12.0 | 0.00 | 0.00 | 0.00 | 35 | 1011.3 |
| 20260901194521 | 95 | 164 | 4.0 | 10.0 | 0.00 | 0.00 | 0.00 | 37 | 1011.5 |
| 20260901193019 | 93 | 94 | 3.0 | 8.0 | 0.00 | 0.00 | 0.00 | 38 | 1011.6 |
| 20260901191516 | 94 | 90 | 2.0 | 6.0 | 0.00 | 0.00 | 0.00 | 38 | 1011.9 |
| 20260901190014 | 94 | 88 | 3.0 | 9.0 | 0.00 | 0.00 | 0.00 | 39 | 1012.1 |
| 20260901184521 | 96 | 158 | 3.0 | 9.0 | 0.00 | 0.00 | 0.00 | 38 | 1012.2 |
| 20260901183012 | 95 | 137 | 4.0 | 9.0 | 0.00 | 0.00 | 0.00 | 39 | 1012.3 |
| 20260901181509 | 94 | 160 | 6.0 | 11.0 | 0.00 | 0.00 | 0.00 | 40 | 1012.6 |
| 20260901180005 | 92 | 164 | 3.0 | 7.0 | 0.00 | 0.00 | 0.00 | 42 | 1012.9 |
| 20260901174506 | 91 | 225 | 1.0 | 4.0 | 0.00 | 0.00 | 0.00 | 42 | 1013.2 |
| 20260901173003 | 92 | 140 | 4.0 | 9.0 | 0.00 | 0.00 | 0.00 | 41 | 1013.6 |
| 20260901171502 | 91 | 192 | 5.0 | 11.0 | 0.00 | 0.00 | 0.00 | 41 | 1013.7 |
| 20260901170107 | 90 | 126 | 6.0 | 12.0 | 0.00 | 0.00 | 0.00 | 42 | 1013.9 |
| 20260901164558 | 88 | 159 | 6.0 | 11.0 | 0.00 | 0.00 | 0.00 | 44 | 1014.0 |
| 20260901163052 | 85 | 164 | 3.0 | 9.0 | 0.00 | 0.00 | 0.00 | 49 | 1014.1 |
| 20260901161550 | 83 | 190 | 1.0 | 5.0 | 0.00 | 0.00 | 0.00 | 54 | 1014.2 |
| 20260901160048 | 82 | 191 | 2.0 | 7.0 | 0.00 | 0.00 | 0.00 | 56 | 1014.3 |